[[{"header":{"parameterUnit":"m.s-1","parameterCategory":1,"la1":30.2991,"la2":30.254,"lo1":-89.0895,"lo2":-89.0444,"dy":0.0017,"dx":0.0017,"nx":28,"ny":28,"refTime":"2024-05-07T09:00:00:Z","depth":0,"parameterNumber":2,"parameterNumberName":"U-component_of_WINDS"},"data":[0,0,0,0,0,0,0,0,0,0,0,0,0,0,0,0,0,0,0,0,0,0,0,0,0,0,0,0,0,0,0,0,0,0,0,0,0,0,0,0,0,0,0,0,0,0,0,0,0,0,0,0,0,0,0,0,0,0,-1.3944,-1.3945,0,-1.401,-1.4011,-1.4012,-1.4053,-1.4053,-1.4054,-1.4054,-1.4122,-1.4123,-1.4125,0,0,0,0,0,0,0,0,0,0,0,0,0,-1.3855,-1.3856,-1.3944,-1.3945,-1.3946,-1.401,-1.4011,-1.4012,-1.4053,-1.4053,-1.4054,-1.4054,-1.4121,-1.4123,-1.4125,0,0,0,0,0,0,0,0,0,0,0,0,0,-1.3904,-1.3857,-1.3944,-1.3974,-1.3977,-1.401,-1.4011,-1.4012,-1.4053,-1.4053,-1.4054,-1.4054,-1.4121,-1.4123,-1.4125,-1.4133,0,0,-1.4133,-1.4134,0,0,0,0,0,0,0,0,-1.3902,-1.3908,-1.3969,-1.3972,-1.3976,-1.4024,-1.4004,-1.4053,-1.4053,-1.4024,-1.4054,-1.4054,-1.4089,-1.4094,-1.4106,-1.4136,-1.4139,-1.4133,-1.4134,-1.4135,-1.4136,0,0,0,0,0,0,0,-1.3898,-1.3905,-1.397,-1.397,-1.3974,-1.3985,-1.3992,-1.4014,-1.4054,-1.4027,-1.403,-1.4037,-1.4091,-1.4103,-1.4107,-1.414,-1.4133,-1.4135,-1.4136,-1.4137,-1.4182,-1.4181,0,0,0,0,0,0,-1.389,-1.3902,-1.3968,-1.3972,-1.3939,-1.3986,-1.3994,-1.4008,-1.4054,-1.4061,-1.4037,-1.4039,-1.4099,-1.4105,-1.411,-1.4123,-1.4135,-1.4137,-1.4139,-1.4182,-1.4181,-1.4181,0,0,0,0,0,0,-1.3888,-1.3895,-1.3966,-1.3938,-1.3948,-1.3987,-1.4002,-1.4009,-1.4021,-1.4061,-1.4069,-1.4042,-1.4099,-1.4107,-1.4127,-1.4125,-1.4139,-1.4141,-1.4182,-1.4182,-1.4181,-1.4147,0,0,0,0,0,0,-1.3885,-1.3894,-1.3897,-1.3938,-1.3949,-1.3981,-1.4002,-1.401,-1.4025,-1.4029,-1.4068,-1.4075,-1.41,-1.4123,-1.413,-1.4129,-1.4143,-1.4182,-1.4182,-1.4181,-1.4149,-1.4146,-1.4143,0,0,0,0,0,-1.3882,-1.3885,-1.3897,-1.3905,-1.3954,-1.3981,-1.3988,-1.4016,-1.4025,-1.4029,-1.4055,-1.4074,-1.4125,-1.4125,-1.4132,-1.4132,-1.4183,-1.4182,-1.4181,-1.415,-1.4146,-1.4143,0,0,0,0,0,0,-1.3844,-1.3891,-1.3905,-1.3922,-1.3947,-1.3988,-1.3993,-1.4012,-1.4035,-1.4037,-1.4072,-1.4081,-1.4098,-1.4118,-1.4117,-1.4143,-1.4156,-1.4157,-1.4129,-1.4126,-1.4124,-1.4118,-1.4145,0,0,0,0,0,-1.3837,-1.3855,-1.3896,-1.3906,-1.3918,-1.3954,-1.3967,-1.3987,-1.4014,-1.4025,-1.4053,-1.4079,-1.4101,-1.4115,-1.4137,-1.4152,-1.4161,-1.4156,-1.4153,-1.4151,-1.4151,-1.416,-1.4158,-1.4179,-1.4179,-1.4179,0,0,-1.3824,-1.3852,-1.3861,-1.3899,-1.3921,-1.394,-1.3962,-1.398,-1.3994,-1.4028,-1.4049,-1.407,-1.4102,-1.412,-1.4129,-1.4137,-1.4147,-1.415,-1.4148,-1.4149,-1.416,-1.4157,-1.4156,-1.4179,-1.4179,-1.4179,0,0,-1.3809,-1.3832,-1.3844,-1.3865,-1.3898,-1.3922,-1.3925,-1.3963,-1.3978,-1.4,-1.4026,-1.4043,-1.4081,-1.4102,-1.4118,-1.4112,-1.4131,-1.4119,-1.4104,-1.4113,-1.4112,-1.411,-1.4108,-1.4107,-1.4119,-1.4119,-1.4119,0,-1.3789,-1.3816,-1.3847,-1.3864,-1.388,-1.3912,-1.3924,-1.3944,-1.3983,-1.3993,-1.4001,-1.4049,-1.4073,-1.4096,-1.4095,-1.4107,-1.4111,-1.4114,-1.4109,-1.4108,-1.4108,-1.4106,-1.4105,-1.4117,-1.4117,-1.4118,-1.4118,0,-1.379,-1.3809,-1.3814,-1.3851,-1.3868,-1.3882,-1.3916,-1.3929,-1.3948,-1.3971,-1.3993,-1.4023,-1.4052,-1.4059,-1.4078,-1.4085,-1.4089,-1.4103,-1.4116,-1.4103,-1.4103,-1.4102,-1.4115,-1.4115,-1.4116,-1.4116,0,0,-1.3752,-1.3806,-1.3807,-1.3825,-1.3864,-1.3879,-1.3895,-1.3924,-1.3935,-1.3961,-1.3976,-1.4007,-1.402,-1.4038,-1.4059,-1.4067,-1.4061,-1.408,-1.4082,-1.4076,-1.4072,-1.4061,-1.406,-1.4074,-1.4074,-1.4074,-1.4069,0,-1.3743,-1.3773,-1.3802,-1.3822,-1.384,-1.3871,-1.3885,-1.3911,-1.3933,-1.3952,-1.3976,-1.3998,-1.4013,-1.4024,-1.4034,-1.406,-1.4061,-1.4061,-1.4088,-1.4088,-1.4079,-1.4059,-1.4048,-1.4042,-1.4069,-1.4069,-1.4069,0,-1.3737,-1.3761,-1.3782,-1.382,-1.3829,-1.3841,-1.387,-1.3888,-1.3918,-1.3933,-1.3954,-1.3976,-1.3995,-1.4007,-1.4034,-1.4033,-1.4047,-1.4061,-1.4062,-1.4065,-1.4077,-1.4062,-1.404,-1.4039,-1.4069,-1.4069,-1.4069,0,-1.3707,-1.3745,-1.3763,-1.3777,-1.3821,-1.3829,-1.3848,-1.3879,-1.3894,-1.392,-1.393,-1.3957,-1.3972,-1.3993,-1.4023,-1.4029,-1.4047,-1.4061,-1.406,-1.4059,-1.4062,-1.4061,-1.4042,-1.4071,-1.4071,-1.4071,-1.4071,0,-1.3694,-1.3706,-1.3751,-1.3762,-1.3776,-1.3809,-1.3823,-1.3845,-1.3872,-1.3888,-1.3917,-1.3931,-1.397,-1.3989,-1.4013,-1.4031,-1.4038,-1.4051,-1.4057,-1.4048,-1.4047,-1.4057,-1.4058,-1.4071,-1.4071,-1.4071,-1.4071,0,-1.3663,-1.3693,-1.3715,-1.3755,-1.3766,-1.3775,-1.381,-1.3822,-1.3846,-1.3866,-1.3873,-1.391,-1.3934,-1.3966,-1.4001,-1.4017,-1.4033,-1.4042,-1.4022,-1.4026,-1.4023,-1.4023,-1.4009,-1.401,-1.4038,-1.4038,-1.4037,0,-1.3652,-1.3662,-1.3704,-1.3716,-1.3734,-1.3755,-1.3771,-1.3804,-1.3819,-1.3855,-1.3863,-1.3889,-1.3912,-1.395,-1.3981,-1.4007,-1.4017,-1.4011,-1.4022,-1.4013,-1.4017,-1.4016,-1.4018,-1.4008,-1.4008,-1.4007,-1.4007,0,-1.363,-1.3645,-1.3667,-1.3694,-1.3712,-1.3735,-1.3759,-1.3768,-1.3807,-1.3823,-1.3848,-1.3866,-1.3901,-1.3928,-1.3958,-1.3979,-1.3999,-1.4004,-1.4005,-1.3996,-1.3984,-1.399,-1.4015,-1.4004,-1.4004,-1.4004,-1.4004,-1.4004,-1.3609,-1.362,-1.3651,-1.3674,-1.3696,-1.3718,-1.3731,-1.3757,-1.3778,-1.381,-1.3828,-1.3853,-1.3883,-1.3927,-1.3946,-1.3966,-1.3974,-1.3976,-1.3976,-1.3976,-1.3973,-1.3981,-1.3972,-1.3972,-1.3972,-1.3972,-1.3972,0,-1.3589,-1.361,-1.3631,-1.3664,-1.3683,-1.3701,-1.3729,-1.3743,-1.3765,-1.3791,-1.3813,-1.3843,-1.3868,-1.3901,-1.3929,-1.3939,-1.3949,-1.3945,-1.3944,-1.3949,-1.3965,-1.3961,-1.3936,-1.3936,-1.3936,-1.3936,-1.3936,-1.3936,-1.358,-1.3599,-1.3617,-1.3647,-1.3669,-1.3693,-1.3707,-1.3728,-1.375,-1.3781,-1.3802,-1.3823,-1.3853,-1.3883,-1.3908,-1.3917,-1.3926,-1.3919,-1.393,-1.3944,-1.3948,-1.3951,-1.3947,-1.392,-1.392,-1.3913,-1.3913,-1.3913]},{"header":{"parameterUnit":"m.s-1","parameterCategory":1,"la1":30.2991,"la2":30.254,"lo1":-89.0895,"lo2":-89.0444,"dy":0.0017,"dx":0.0017,"nx":28,"ny":28,"refTime":"2024-05-07T09:00:00:Z","depth":0,"parameterNumber":3,"parameterNumberName":"V-component_of_WINDS"},"data":[0,0,0,0,0,0,0,0,0,0,0,0,0,0,0,0,0,0,0,0,0,0,0,0,0,0,0,0,0,0,0,0,0,0,0,0,0,0,0,0,0,0,0,0,0,0,0,0,0,0,0,0,0,0,0,0,0,0,5.822,5.822,0,5.8228,5.8229,5.8229,5.8166,5.8164,5.8163,5.8161,5.8168,5.817,5.8172,0,0,0,0,0,0,0,0,0,0,0,0,0,5.8147,5.8149,5.822,5.822,5.822,5.8228,5.8229,5.8229,5.8166,5.8164,5.8162,5.816,5.8168,5.817,5.8172,0,0,0,0,0,0,0,0,0,0,0,0,0,5.817,5.8149,5.8219,5.819,5.8187,5.8228,5.8229,5.8229,5.8167,5.8164,5.8162,5.8159,5.8167,5.817,5.8172,5.8242,0,0,5.8181,5.8182,0,0,0,0,0,0,0,0,5.8168,5.8172,5.8194,5.8192,5.8189,5.8194,5.8206,5.8233,5.8168,5.8175,5.8161,5.8158,5.8179,5.818,5.8188,5.8242,5.8242,5.8181,5.8183,5.8184,5.8185,0,0,0,0,0,0,0,5.8167,5.8172,5.8223,5.8194,5.8191,5.8176,5.8176,5.8211,5.8191,5.8174,5.8169,5.8171,5.8177,5.8185,5.8187,5.8243,5.8181,5.8183,5.8185,5.8186,5.8355,5.8358,0,0,0,0,0,0,5.817,5.8171,5.8223,5.8223,5.8172,5.8179,5.8179,5.8195,5.8191,5.8188,5.8173,5.8168,5.8182,5.8184,5.8187,5.8269,5.8184,5.8186,5.8188,5.8353,5.8356,5.8359,0,0,0,0,0,0,5.8168,5.8175,5.8222,5.8196,5.8201,5.8183,5.8201,5.8196,5.8205,5.819,5.8187,5.8186,5.818,5.8184,5.8229,5.8268,5.8188,5.819,5.8349,5.8354,5.8358,5.8433,0,0,0,0,0,0,5.8166,5.8175,5.8201,5.8197,5.8202,5.8265,5.8203,5.8198,5.821,5.8203,5.8201,5.8198,5.8178,5.8225,5.8232,5.8271,5.8192,5.8346,5.8351,5.8356,5.8427,5.8439,5.845,0,0,0,0,0,5.8164,5.8221,5.8203,5.821,5.8235,5.8267,5.827,5.8246,5.8213,5.824,5.8231,5.8198,5.8263,5.8231,5.8237,5.8278,5.8343,5.835,5.8356,5.8422,5.8437,5.845,0,0,0,0,0,0,5.823,5.822,5.82,5.8257,5.8264,5.8256,5.8289,5.8263,5.8278,5.8271,5.824,5.8241,5.8291,5.8289,5.8253,5.8345,5.8297,5.8305,5.8345,5.8359,5.8371,5.837,5.8194,0,0,0,0,0,5.8251,5.8279,5.8268,5.832,5.8325,5.8307,5.8319,5.8301,5.8306,5.8308,5.8302,5.8307,5.8329,5.8344,5.8363,5.8426,5.8425,5.8457,5.8469,5.8478,5.8486,5.852,5.8534,5.838,5.838,5.838,0,0,5.8295,5.8294,5.8312,5.8334,5.8336,5.8365,5.8309,5.8341,5.8362,5.8312,5.8355,5.8352,5.8356,5.8411,5.8434,5.841,5.8528,5.8487,5.8494,5.8497,5.8528,5.8543,5.8556,5.8385,5.8384,5.8383,0,0,5.8391,5.8392,5.8436,5.844,5.8445,5.8433,5.8443,5.844,5.8436,5.8479,5.8443,5.8467,5.8505,5.8509,5.8517,5.8615,5.8586,5.8622,5.8682,5.8716,5.8728,5.8739,5.8774,5.8788,5.8629,5.863,5.863,0,5.8445,5.8487,5.8461,5.8497,5.8507,5.8465,5.8509,5.8514,5.8525,5.8533,5.8505,5.8553,5.8552,5.8608,5.8633,5.864,5.8651,5.8622,5.8728,5.8739,5.8748,5.8782,5.8796,5.8634,5.8634,5.8633,5.8633,0,5.8554,5.8583,5.8618,5.8631,5.8645,5.8685,5.8665,5.8683,5.8663,5.8654,5.8698,5.8697,5.8715,5.8727,5.8707,5.878,5.8765,5.8734,5.8685,5.8768,5.8799,5.8812,5.864,5.8639,5.8637,5.8636,0,0,5.869,5.8689,5.8702,5.8708,5.8711,5.8733,5.8771,5.879,5.8806,5.8815,5.8846,5.888,5.8851,5.8859,5.884,5.887,5.8949,5.8834,5.8834,5.8856,5.903,5.9054,5.9069,5.8929,5.8932,5.8933,5.9029,0,5.8784,5.8849,5.8828,5.8894,5.8921,5.8881,5.8914,5.8919,5.8912,5.8934,5.8925,5.895,5.8909,5.8914,5.8942,5.8933,5.8983,5.8926,5.8958,5.8959,5.8959,5.9085,5.9111,5.9201,5.9041,5.9043,5.9045,0,5.8902,5.8917,5.8986,5.8985,5.8996,5.9026,5.9042,5.9064,5.9069,5.9061,5.9072,5.9046,5.9083,5.9034,5.9085,5.9046,5.9058,5.9056,5.9059,5.9061,5.9007,5.9091,5.9229,5.9243,5.9064,5.9062,5.9061,0,5.8995,5.9033,5.9079,5.9085,5.9085,5.9108,5.9108,5.9111,5.9124,5.9138,5.9146,5.9164,5.9174,5.9188,5.9168,5.9135,5.9222,5.9171,5.9217,5.9217,5.9237,5.9236,5.9379,5.9244,5.9244,5.9243,5.9243,0,5.9103,5.9147,5.9122,5.915,5.9199,5.9173,5.9222,5.9218,5.9221,5.9248,5.9214,5.924,5.9212,5.9236,5.922,5.9265,5.9269,5.9264,5.926,5.9268,5.9268,5.9275,5.9268,5.9247,5.9246,5.9246,5.9245,0,5.9216,5.9201,5.9249,5.9245,5.9246,5.9281,5.9278,5.9304,5.9294,5.9329,5.9336,5.932,5.9346,5.9328,5.9353,5.9343,5.9402,5.9388,5.9401,5.9397,5.9444,5.944,5.9597,5.9616,5.9468,5.9469,5.9471,0,5.9285,5.9318,5.9319,5.9335,5.9339,5.9365,5.9379,5.9355,5.937,5.9379,5.9405,5.9428,5.9445,5.9488,5.9479,5.9498,5.9485,5.9539,5.9488,5.9495,5.9487,5.9485,5.9489,5.9549,5.9551,5.9553,5.9554,0,5.9411,5.9402,5.9423,5.9443,5.946,5.9474,5.9485,5.95,5.9476,5.9495,5.9521,5.9535,5.9562,5.9585,5.9601,5.9601,5.9574,5.957,5.9582,5.959,5.9596,5.9594,5.9429,5.9566,5.9565,5.9564,5.9564,5.9563,5.9505,5.9533,5.9538,5.9563,5.9569,5.958,5.9605,5.9599,5.9621,5.9641,5.9626,5.9658,5.9662,5.9681,5.9685,5.9709,5.9687,5.9704,5.9708,5.9713,5.972,5.9592,5.9712,5.9712,5.9711,5.9711,5.9711,0,5.9629,5.9631,5.9654,5.9671,5.9691,5.9664,5.9675,5.9693,5.9722,5.9729,5.9747,5.9778,5.9801,5.9794,5.9814,5.9835,5.9823,5.9841,5.9839,5.984,5.9738,5.9726,5.985,5.985,5.985,5.985,5.985,5.985,5.9696,5.9743,5.9735,5.9784,5.9785,5.9817,5.9825,5.9835,5.9841,5.9877,5.9896,5.9892,5.9893,5.9913,5.9933,5.993,5.994,5.9963,5.9956,5.9861,5.9847,5.9834,5.9823,5.9965,5.9965,6.0055,6.0056,6.0057]}]]